Xiang Long — V3VA7 — position and weather

sailwx.info

Track history (hours):
 
Tides and Currents Weather Stations Pressure Air Temp Water Temp Dewpoint Dewpoint Depression Visibility Wind Speed Wind Dir Waves Ship Positions

Xiang Long

Last reported at 2017-Oct-21 11:47 UTC. Time now 2017-Oct-22 17:04 UTC.
Position N 37°54' E 121°30'.

Length 75 m; draft 4.9 m.

Type: Cargo ship. MMSI: 312031000.

Date/timePositionNaut miles runAvg speedWind from/ knotsBaromVisibWave heightAir tempDewpointWater temp
2017-Oct-21 11:47N 37°54' E 121°30'  
2017-Oct-13 00:09N 34°37' E 134°57'1 8.3
2017-Oct-13 00:00N 34°38' E 134°58'4 6.7
2017-Oct-12 23:25N 34°36' E 135°03'3 6.8
2017-Oct-12 23:00N 34°34' E 135°05'4 9.1
2017-Oct-12 22:30N 34°30' E 135°04'6 9.1
2017-Oct-12 21:54N 34°24' E 135°02'12 8.2
2017-Oct-12 20:26N 34°13' E 134°59'4 9.2
2017-Oct-12 20:00N 34°09' E 134°59'  
Track history (hours):
 
Tides and Currents Weather Stations Pressure Air Temp Water Temp Dewpoint Dewpoint Depression Visibility Wind Speed Wind Dir Waves Ship Positions

Xiang Long

Last reported at 2017-Oct-21 11:47 UTC. Time now 2017-Oct-22 17:04 UTC.
Position N 37°54' E 121°30'.

Length 75 m; draft 4.9 m.

Type: Cargo ship. MMSI: 312031000.

Date/timePositionNaut miles runAvg speedWind from/ knotsBaromVisibWave heightAir tempDewpointWater temp
2017-Oct-21 11:47N 37°54' E 121°30'  
2017-Oct-13 00:09N 34°37' E 134°57'1 8.3
2017-Oct-13 00:00N 34°38' E 134°58'4 6.7
2017-Oct-12 23:25N 34°36' E 135°03'3 6.8
2017-Oct-12 23:00N 34°34' E 135°05'4 9.1
2017-Oct-12 22:30N 34°30' E 135°04'6 9.1
2017-Oct-12 21:54N 34°24' E 135°02'12 8.2
2017-Oct-12 20:26N 34°13' E 134°59'4 9.2
2017-Oct-12 20:00N 34°09' E 134°59'  

Dump ship's entire track history